Home > Weather > Eau Claire > Past weeks

Flag for USA Weather for the Past 2 Weeks in Eau Claire, Wisconsin, USA

Now
45 °F

Clear.


Feels Like: 44 °F
Forecast: 42 / 68 °F
Wind: 3 mph from Southwest

Location: Eau Claire County Airport

Current Time: May 3, 2016 at 2:00:38 AM

Latest Report: May 3, 2016 at 12:56 AM


Visibility: 10 mi

Pressure: 29.97 "Hg

Humidity: 74%

Dew Point: 37 °F

Location of Eau ClaireLocation

Historic Weather in Eau Claire — Graph

°F

Eau Claire Temperature Yesterday

Maximum temperature yesterday: 65 °F (at 2:56 PM)
Minimum temperature yesterday: 35 °F (at 5:56 AM)
Average temperature yesterday: 53 °F

High & Low Weather Summary for the Past Weeks

 TemperatureHumidityPressure
High80 °F (Apr 18, 2:56 PM)97% (Apr 18, 5:56 AM)30.29 "Hg (Apr 18, 5:56 AM)
Low33 °F (Apr 23, 4:56 AM)25% (Apr 18, 2:56 PM)29.58 "Hg (Apr 25, 1:56 PM)
Average51 °F68%30.02 "Hg
* Reported Apr 17 11:56 PM — May 2 11:56 PM, Eau Claire, Weather by CustomWeather, © 2016

Note: Actual official high and low records may vary slightly from our data, if they occured in-between our weather recording intervals... More about our weather records

Advertising

Eau Claire Weather History for the Previous 24 Hours

Scroll right to see more
 ConditionsComfort  
Time TempWeatherWind HumidityBarometerVisibility
11:56 PM
Mon, May 2
44 °FClear.No wind73%29.98 "Hg10 mi
10:56 PM50 °FClear.No wind57%29.99 "Hg10 mi
9:56 PM52 °FClear.5 mph57%30.00 "Hg10 mi
8:56 PM57 °FPartly sunny.3 mph44%30.00 "Hg10 mi
7:56 PM60 °FPartly sunny.3 mph39%30.00 "Hg10 mi
6:56 PM63 °FSunny.No wind30%30.00 "Hg10 mi
5:56 PM64 °FPartly sunny.6 mph30%30.01 "Hg10 mi
4:56 PM63 °FScattered clouds.6 mph30%30.01 "Hg10 mi
3:56 PM64 °FPartly sunny.7 mph29%30.03 "Hg10 mi
2:56 PM65 °FPartly sunny.7 mph29%30.05 "Hg10 mi
1:56 PM63 °FPartly sunny.7 mph31%30.06 "Hg10 mi
12:56 PM64 °FPartly sunny.7 mph33%30.08 "Hg10 mi
11:56 AM61 °FSunny.6 mph35%30.09 "Hg10 mi
10:56 AM60 °FSunny.6 mph36%30.11 "Hg10 mi
9:56 AM57 °FSunny.5 mph42%30.11 "Hg10 mi
8:56 AM54 °FCool.5 mph53%30.11 "Hg10 mi
7:56 AM48 °FSunny.No wind68%30.11 "Hg10 mi
6:56 AM40 °FSunny.No wind93%30.12 "Hg10 mi
5:56 AM35 °FPassing clouds.No wind96%30.12 "Hg10 mi
4:56 AM37 °FPassing clouds.No wind89%30.12 "Hg10 mi
3:56 AM40 °FPassing clouds.No wind86%30.12 "Hg10 mi
2:56 AM40 °FPassing clouds.No wind83%30.12 "Hg10 mi
Weather by CustomWeather, © 2016

See weather overviewHow to use our weather pages